TimeEST,TemperatureF,Dew PointF,Humidity,Sea Level PressureIn,VisibilityMPH,Wind Direction,Wind SpeedMPH,Gust SpeedMPH,PrecipitationIn,Events,Conditions,WindDirDegrees,DateUTC
12:54 AM,35.1,27.0,72,30.02,10.0,Calm,Calm,-,N/A,,Partly Cloudy,0,2013-02-04 05:54:00
1:54 AM,32.0,27.0,82,30.03,10.0,Calm,Calm,-,N/A,,Clear,0,2013-02-04 06:54:00
2:54 AM,32.0,27.0,82,30.04,10.0,Calm,Calm,-,N/A,,Unknown,0,2013-02-04 07:54:00
3:54 AM,36.0,24.1,62,30.07,10.0,North,6.9,-,N/A,,Clear,350,2013-02-04 08:54:00
5:54 AM,28.9,24.1,82,30.10,10.0,Calm,Calm,-,N/A,,Clear,0,2013-02-04 10:54:00
6:54 AM,30.0,24.1,79,30.11,10.0,Calm,Calm,-,N/A,,Clear,0,2013-02-04 11:54:00
7:54 AM,32.0,25.0,75,30.13,10.0,Calm,Calm,-,N/A,,Clear,0,2013-02-04 12:54:00
8:54 AM,39.0,25.0,57,30.15,10.0,North,5.8,-,N/A,,Clear,10,2013-02-04 13:54:00
9:54 AM,41.0,21.0,45,30.17,10.0,North,4.6,-,N/A,,Unknown,350,2013-02-04 14:54:00
10:54 AM,43.0,21.0,42,30.16,-9999.0,North,-9999.0,-,N/A,,Unknown,0,2013-02-04 15:54:00
11:54 AM,-9999,-9999,N/A,30.16,-9999.0,North,-9999.0,-,N/A,,Unknown,0,2013-02-04 16:54:00
12:54 PM,48.9,21.0,33,30.14,10.0,West,6.9,-,N/A,,Unknown,260,2013-02-04 17:54:00
1:54 PM,51.1,21.9,32,30.11,10.0,West,9.2,-,N/A,,Clear,270,2013-02-04 18:54:00
2:54 PM,51.1,23.0,33,30.11,10.0,North,-9999.0,-,N/A,,Clear,0,2013-02-04 19:54:00
3:54 PM,50.0,24.1,36,30.08,10.0,West,4.6,-,N/A,,Clear,280,2013-02-04 20:54:00
4:54 PM,48.9,25.0,39,30.08,10.0,WNW,4.6,-,N/A,,Clear,300,2013-02-04 21:54:00
5:54 PM,45.0,28.0,52,30.09,10.0,SSE,4.6,-,N/A,,Clear,150,2013-02-04 22:54:00
6:54 PM,45.0,28.9,53,30.10,10.0,South,5.8,-,N/A,,Clear,180,2013-02-04 23:54:00
8:54 PM,44.1,30.0,58,30.08,10.0,South,5.8,-,N/A,,Clear,190,2013-02-05 01:54:00
9:54 PM,43.0,30.0,60,30.08,10.0,SSW,3.5,-,N/A,,Clear,200,2013-02-05 02:54:00
10:54 PM,42.1,30.9,65,30.07,10.0,SW,3.5,-,N/A,,Clear,220,2013-02-05 03:54:00
11:54 PM,41.0,30.9,67,30.08,10.0,Calm,Calm,-,N/A,,Clear,0,2013-02-05 04:54:00